(97752) = 2000 HH86

Discovered at Anderson Mesa on 2000-04-30 by LONEOS.

Orbit

Orbit type: Main Belt

Note: WebGL enabled browser required.

epoch2023-09-13.0
epoch JD2460200.5
perihelion date2022-06-16.51611
perihelion JD2459747.01611
argument of perihelion (°)198.39595
ascending node (°)82.87009
inclination (°)6.10675
eccentricity0.1557642
perihelion distance (AU)1.7982758
Tisserand w.r.t. Jupiter3.7
ΔV w.r.t. Earth (km/sec)8.4
semimajor axis (AU)2.1300633
mean anomaly (°)143.77287
mean daily motion (°/day)0.31704070
aphelion distance (AU)2.462
period (years)3.11
P-vector [x]0.19358793
P-vector [y]-0.88624466
P-vector [z]-0.42082552
Q-vector [x]0.97538767
Q-vector [y]0.22001055
Q-vector [z]-0.01463764
absolute magnitude17.11
phase slope0.15
uncertainty0
referenceMPEC 2023-Y18
observations used689
oppositions17
arc length (days)8629
first opposition used2000
last opposition used2023
residual rms (arc-secs)0.75
perturbers coarse indicatorM-v
perturbers precise indicator003Ek
first observation date used2000-04-30.0
last observation date used2023-12-15.0
computer nameMPCLINUX
JD of orbit computation2456612.611570
perihelion JD uncertainty (days)1.3693E-04
argument of perihelion uncertainty (°)1.0138E-04
ascending node uncertainty (°)9.3212E-05
inclination uncertainty (°)7.0463E-06
eccentricity uncertainty 6.3798E-08
perihelion distance uncertainty (AU)1.2767E-07
Minimum Orbit Intersection Distances (in AU)
for orbit epoch: 2460200.5, reference: E2023-Y18
Mercury1.33897
Venus1.07077
Earth0.78237
Mars0.33673
Jupiter2.65119
Saturn6.59766
Uranus16.1477
Neptune27.5322

Observations

709 total observations over interval: 2000 04 30.29207 – 2023 12 15.324078
These data are available for download (format description).

Date (UT) J2000 RA J2000 Dec Magn Location Ref
2000 04 30.29207 15 25 16.25 -10 40 21.9 18.6 R 699 – Lowell Observatory-LONEOS MPS 14661
2000 04 30.31106 15 25 15.02 -10 40 20.7   699 – Lowell Observatory-LONEOS MPS 14661
2000 04 30.33010 15 25 13.94 -10 40 19.0   699 – Lowell Observatory-LONEOS MPS 14661
2000 04 30.34909 15 25 12.87 -10 40 18.2   699 – Lowell Observatory-LONEOS MPS 14661
2000 05 05.33146 15 20 14.71 -10 36 14.2 18.4   704 – Lincoln Laboratory ETS, New Mexico MPS 14661
2000 05 05.35555 15 20 13.18 -10 36 12.9 18.3   704 – Lincoln Laboratory ETS, New Mexico MPS 14661
2000 05 05.36755 15 20 12.38 -10 36 12.8 18.7   704 – Lincoln Laboratory ETS, New Mexico MPS 14661
2000 05 25.24030 14 59 10.58 -10 45 34.0 18.4 R 699 – Lowell Observatory-LONEOS MPS 15860
2000 05 25.26116 14 59 09.28 -10 45 35.6   699 – Lowell Observatory-LONEOS MPS 15860
2000 05 25.28211 14 59 07.98 -10 45 37.7   699 – Lowell Observatory-LONEOS MPS 15860
2000 05 25.30309 14 59 06.75 -10 45 40.5   699 – Lowell Observatory-LONEOS MPS 15860
2000 05 27.18159 14 57 21.42 -10 49 23.1 19.1   704 – Lincoln Laboratory ETS, New Mexico MPS 15860
2000 05 27.19505 14 57 20.49 -10 49 25.7 19.1   704 – Lincoln Laboratory ETS, New Mexico MPS 15860
2000 05 27.20847 14 57 19.81 -10 49 26.0 19.3   704 – Lincoln Laboratory ETS, New Mexico MPS 15860
2000 05 27.23526 14 57 18.21 -10 49 30.9 19.0   704 – Lincoln Laboratory ETS, New Mexico MPS 15860
2000 05 28.19891 14 56 25.98 -10 51 39.1 18.8 R 699 – Lowell Observatory-LONEOS MPS 15860
2000 05 28.23991 14 56 23.69 -10 51 44.3   699 – Lowell Observatory-LONEOS MPS 15860
2000 05 28.26368 14 56 22.27 -10 51 47.7   699 – Lowell Observatory-LONEOS MPS 15860
2000 05 28.28741 14 56 20.97 -10 51 49.9   699 – Lowell Observatory-LONEOS MPS 15860
2000 06 01.36275 14 52 56.96 -11 02 33.8 19.7   608 – Haleakala-AMOS MPS 15860
2000 06 01.37336 14 52 56.45 -11 02 35.9 19.8   608 – Haleakala-AMOS MPS 15860
2000 06 01.38363 14 52 55.93 -11 02 37.7 19.8   608 – Haleakala-AMOS MPS 15860
2000 06 05.23330 14 50 11.10 -11 15 21.8 18.7 R 699 – Lowell Observatory-LONEOS MPS 17028
2000 06 05.24916 14 50 10.44 -11 15 24.8   699 – Lowell Observatory-LONEOS MPS 17028
2000 06 05.26494 14 50 09.85 -11 15 28.8   699 – Lowell Observatory-LONEOS MPS 17028
2000 06 05.28076 14 50 09.12 -11 15 31.9   699 – Lowell Observatory-LONEOS MPS 17028
2001 11 21.36914 05 07 38.97 +20 36 45.4 20.1   704 – Lincoln Laboratory ETS, New Mexico MPS 51721
2001 11 21.39849 05 07 36.94 +20 36 47.9 19.9   704 – Lincoln Laboratory ETS, New Mexico MPS 51721
2001 11 21.41318 05 07 35.85 +20 36 47.8 20.4   704 – Lincoln Laboratory ETS, New Mexico MPS 51721
2001 11 21.42788 05 07 34.97 +20 36 49.0 20.2   704 – Lincoln Laboratory ETS, New Mexico MPS 51721
2001 12 23.28918 04 29 48.66 +20 55 04.7 20.6 V 691 – Steward Observatory, Kitt Peak-Spacewatch MPS 51721
2001 12 23.31202 04 29 47.25 +20 55 06.1 20.6 V 691 – Steward Observatory, Kitt Peak-Spacewatch MPS 51721
2001 12 23.33483 04 29 45.81 +20 55 06.3 20.8 V 691 – Steward Observatory, Kitt Peak-Spacewatch MPS 51721
2003 03 27.43855 14 04 08.00 -01 34 41.1 20.5   644 – Palomar Mountain/NEAT MPS 77893
2003 03 27.44909 14 04 07.55 -01 34 37.5 19.6   644 – Palomar Mountain/NEAT MPS 77893
2003 03 27.45955 14 04 07.14 -01 34 35.2 20.0   644 – Palomar Mountain/NEAT MPS 77893
2003 03 29.39628 14 02 47.74 -01 24 39.0 19.5 R 699 – Lowell Observatory-LONEOS MPS 75679
2003 03 29.40626 14 02 47.23 -01 24 35.6   699 – Lowell Observatory-LONEOS MPS 75679
2003 03 29.41620 14 02 46.90 -01 24 30.8   699 – Lowell Observatory-LONEOS MPS 75679
2003 03 29.42619 14 02 46.44 -01 24 29.2   699 – Lowell Observatory-LONEOS MPS 75679
2003 04 01.30585 14 00 36.12 -01 09 26.4 19.1   704 – Lincoln Laboratory ETS, New Mexico MPS 75679
2003 04 01.31786 14 00 35.52 -01 09 24.2 19.1   704 – Lincoln Laboratory ETS, New Mexico MPS 75679
2003 04 01.34254 14 00 34.32 -01 09 17.4 19.4   704 – Lincoln Laboratory ETS, New Mexico MPS 75679
2003 04 01.35468 14 00 33.71 -01 09 12.6 19.4   704 – Lincoln Laboratory ETS, New Mexico MPS 75679
2003 04 04.38129 13 58 01.55 -00 53 23.7 19.6 V 691 – Steward Observatory, Kitt Peak-Spacewatch MPS 75679
2003 04 04.41084 13 57 59.92 -00 53 14.5 19.5 V 691 – Steward Observatory, Kitt Peak-Spacewatch MPS 75679
2003 04 04.44055 13 57 58.28 -00 53 05.2 19.5 V 691 – Steward Observatory, Kitt Peak-Spacewatch MPS 75679
2003 04 08.32203 13 54 24.48 -00 33 12.0   704 – Lincoln Laboratory ETS, New Mexico MPS 406639
2003 04 08.33513 13 54 23.69 -00 33 06.9   704 – Lincoln Laboratory ETS, New Mexico MPS 406639
2003 04 11.28065 13 51 29.88 -00 18 36.1 19.8   644 – Palomar Mountain/NEAT MPS 75679
2003 04 11.35131 13 51 25.39 -00 18 15.6 19.2   644 – Palomar Mountain/NEAT MPS 75679
2003 04 11.41448 13 51 21.39 -00 17 57.4 19.2   644 – Palomar Mountain/NEAT MPS 75679
2003 04 25.28790 13 36 41.49 +00 35 39.3 19.1 R 699 – Lowell Observatory-LONEOS MPS 77893
2003 04 25.30238 13 36 40.59 +00 35 41.7   699 – Lowell Observatory-LONEOS MPS 77893
2003 04 25.31682 13 36 39.57 +00 35 44.8   699 – Lowell Observatory-LONEOS MPS 77893
2003 04 25.33125 13 36 38.64 +00 35 46.5   699 – Lowell Observatory-LONEOS MPS 77893
2003 05 02.26106 13 29 38.26 +00 48 58.5 19.0   704 – Lincoln Laboratory ETS, New Mexico MPS 77893
2003 05 02.27278 13 29 37.53 +00 48 58.6 19.6   704 – Lincoln Laboratory ETS, New Mexico MPS 77893
2003 05 02.28456 13 29 36.90 +00 49 00.3 19.6   704 – Lincoln Laboratory ETS, New Mexico MPS 77893
2003 05 02.29628 13 29 36.14 +00 49 00.9 19.6   704 – Lincoln Laboratory ETS, New Mexico MPS 77893
2003 05 02.30809 13 29 35.44 +00 49 01.8 19.6   704 – Lincoln Laboratory ETS, New Mexico MPS 77893
2003 05 05.26163 13 26 51.55 +00 51 08.8 18.9   704 – Lincoln Laboratory ETS, New Mexico MPS 77893
2003 05 05.27367 13 26 50.91 +00 51 09.2 18.9   704 – Lincoln Laboratory ETS, New Mexico MPS 77893
2003 05 05.29771 13 26 49.62 +00 51 13.3 19.6   704 – Lincoln Laboratory ETS, New Mexico MPS 77893
2003 05 05.30961 13 26 48.76 +00 51 09.9 19.0   704 – Lincoln Laboratory ETS, New Mexico MPS 77893
2004 11 19.28778 04 01 16.59 +16 23 13.6 18.9 R 703 – Catalina Sky Survey MPS 119778
2004 11 19.29608 04 01 16.00 +16 23 12.9 19.4 R 703 – Catalina Sky Survey MPS 119778
2004 11 19.30432 04 01 15.37 +16 23 12.4 18.1 R 703 – Catalina Sky Survey MPS 119778
2004 11 19.31262 04 01 14.85 +16 23 11.9 19.6 R 703 – Catalina Sky Survey MPS 119778
2004 12 10.91999 03 36 39.62 +16 11 13.2 20.9 R 599 – Campo Imperatore-CINEOS MPS 121581
2004 12 10.93131 03 36 38.92 +16 11 13.3 20.3 R 599 – Campo Imperatore-CINEOS MPS 121581
2004 12 10.94266 03 36 38.31 +16 11 13.9 19.9 R 599 – Campo Imperatore-CINEOS MPS 121581
2004 12 10.95395 03 36 37.59 +16 11 11.8 20.2 R 599 – Campo Imperatore-CINEOS MPS 121581
2004 12 11.81348 03 35 49.57 +16 11 18.5 20.1 R 599 – Campo Imperatore-CINEOS MPS 121581
2004 12 11.82479 03 35 48.89 +16 11 18.9 20.0 R 599 – Campo Imperatore-CINEOS MPS 121581
2004 12 11.83610 03 35 48.21 +16 11 18.6 19.8 R 599 – Campo Imperatore-CINEOS MPS 121581
2004 12 11.84742 03 35 47.63 +16 11 20.2 20.2 R 599 – Campo Imperatore-CINEOS MPS 121581
2004 12 12.84965 03 34 52.83 +16 11 29.9 19.9 R 599 – Campo Imperatore-CINEOS MPS 121581
2004 12 12.86259 03 34 52.12 +16 11 30.3 19.9 R 599 – Campo Imperatore-CINEOS MPS 121581
2004 12 12.87550 03 34 51.37 +16 11 30.7 19.8 R 599 – Campo Imperatore-CINEOS MPS 121581
2004 12 12.88844 03 34 50.63 +16 11 31.3 19.9 R 599 – Campo Imperatore-CINEOS MPS 121581
2006 02 24.33764 12 56 27.59 +05 05 56.3 19.6 R 644 – Palomar Mountain/NEAT MPS 164851
2006 02 24.40874 12 56 26.02 +05 06 21.9 19.4 R 644 – Palomar Mountain/NEAT MPS 164851
2006 02 24.47146 12 56 24.71 +05 06 44.2 19.6 R 644 – Palomar Mountain/NEAT MPS 164851
2006 04 18.26747 12 11 06.90 +10 11 58.0 20.2 V 703 – Catalina Sky Survey MPS 169728
2006 04 18.27557 12 11 06.54 +10 11 58.3 19.7 V 703 – Catalina Sky Survey MPS 169728
2006 04 18.28367 12 11 05.96 +10 12 00.0 20.1 V 703 – Catalina Sky Survey MPS 169728
2006 04 18.29172 12 11 05.67 +10 11 58.7 19.6 V 703 – Catalina Sky Survey MPS 169728
2006 04 23.17506 12 07 25.14 +10 14 45.7 19.4 R 699 – Lowell Observatory-LONEOS MPS 170656
2006 04 23.20060 12 07 24.08 +10 14 45.8   699 – Lowell Observatory-LONEOS MPS 170656
